CZ-6A DEB, 64638

Orbit data source: Space-Track

CZ-6A DEB, 64638 is space debris in LEO originally from a launch on Tue, 06 Aug 2024 UTC launched from the Taiyaun Space Center, China (TSC). Debris objects in space refer to the collection of defunct objects orbiting the Earth. Examples of debris include non-operational satellites, rocket bodies, and fragments generated from explosions, collisions, or faulty payload assembly.

Loading next visibility...
Identifier
64638, 2024-140AEC
Orbit
LEO
Country
Flag of CNCN / PRC
Related business
Manufacturer
SAST
Mission
Spacecraft
Bus & Motor
Unknown
Mass
Unknown
Launch date (UTC)
2024-08-06 (2 years ago)
Launch vehicle
Unknown
Launch site
Taiyaun Space Center, China (TSC)
Object type
Payload
Rocket body
Debris
Shape & HBR
Unknown shape, 0.1 m
Radar Cross Section
Medium (>0.1 m² and <1 m²)

Expand to show TLE details & history
Last TLE update: 15 hours ago

TLE from 15 hours ago
0 CZ-6A DEB
1 64638U 24140AEC 26171.23013816  .00003958  00000-0  10758-2 0  9997
2 64638  88.8609 260.2567 0044706 347.8518  12.1604 14.46789260 92364
Epoch: 2026-06-20T05:31Z
TLE epoch observation values (Epoch: 2026-06-20T05:31:23.937Z)
Latitude
-0.00004°
Longitude
-91.04079°
Altitude
708.153 km
Speed
7.518 km/s
True Right ascension
17h 21m 01s
True Declination
0° 00' 00"
Sunlit
Object was in full shadow at epoch
Visualization orbit readout
Latitude
Unknown
Longitude
Unknown
Altitude
Unknown
Speed
Unknown
Apparent Right ascension
Unknown
Apparent Declination
Unknown
Sunlit
N/A
Visualization observer readout
Local Sidereal Time
07:21:00
Azimuth
Unknown
Elevation
Unknown
Doppler factor
Unknown
Orbital elements
Apogee altitude
764.86 km
Perigee altitude
701.277 km
Semi-major axis
7,111.205 km
Eccentricity
0.00447
Inclination
88.8609°
RAAN
260.2567°
Arg. of periapsis
347.8518°
True anomaly
12.26891°
Mean anomaly
12.1604°
Eccentric anomaly
12.21459°
Mean motion
3.61933 °/min
Orbital period
99.47 mins
BSTAR
0.0010758
Loading maneuver chart data...
Computing Atmospheric mass density...
Loading historical data...
Loading historical data...
Loading historical data...
Loading historical data...
Loading historical data...
Loading historical data...
Loading historical data...

Documentation

Showing up to 5 results
|